KAC001 OKKK-OMDB

Flight info

Callsign KAC001
Flight time N/A
Altitude 39000
Route SESRU M677 VUTEB
Aircraft A346/H-SDE2E3FGHIJ3J4J5M1RWXY/LB1D1

Departure

Time N/A
Airport Kuwait International Airport (OKKK)

Arrival

Time 2026-04-20 06:10
Airport Dubai International Airport (OMDB)
Time Latitude Longitude Altitude Speed Heading
2026-04-20 04:55 29.33555 48.37544 19010 ft 454 kts 115°
2026-04-20 04:56 29.32392 48.40942 19502 ft 458 kts 115°
2026-04-20 04:56 29.31223 48.44353 19974 ft 462 kts 115°
2026-04-20 04:56 29.30037 48.47811 20367 ft 467 kts 115°
2026-04-20 04:56 29.28841 48.51297 20770 ft 472 kts 115°
2026-04-20 04:57 29.27634 48.54812 21363 ft 477 kts 115°
2026-04-20 04:57 29.26414 48.58365 22044 ft 480 kts 115°
2026-04-20 04:57 29.25183 48.61944 22665 ft 484 kts 115°
2026-04-20 04:57 29.23941 48.65540 23270 ft 489 kts 114°
2026-04-20 04:58 29.22685 48.69205 23830 ft 493 kts 115°
2026-04-20 04:58 29.21424 48.72876 24384 ft 496 kts 115°
2026-04-20 04:58 29.20151 48.76567 24945 ft 498 kts 115°
2026-04-20 04:58 29.18870 48.80273 25509 ft 501 kts 115°
2026-04-20 04:59 29.17595 48.83953 26077 ft 504 kts 115°
2026-04-20 04:59 29.16197 48.87730 26628 ft 505 kts 120°
2026-04-20 04:59 29.14420 48.91131 27174 ft 503 kts 129°
2026-04-20 04:59 29.12176 48.94202 27739 ft 500 kts 139°
2026-04-20 05:00 29.09606 48.96878 28315 ft 500 kts 144°
2026-04-20 05:00 29.06944 48.99436 28969 ft 499 kts 145°
2026-04-20 05:00 29.04267 49.01974 29832 ft 496 kts 145°
2026-04-20 05:00 29.01629 49.04491 30628 ft 492 kts 145°
2026-04-20 05:01 28.99010 49.07012 31352 ft 489 kts 144°
2026-04-20 05:01 28.96409 49.09528 31949 ft 490 kts 144°
2026-04-20 05:01 28.93800 49.12061 32479 ft 492 kts 144°
2026-04-20 05:01 28.91224 49.14564 33107 ft 491 kts 145°
2026-04-20 05:02 28.88619 49.17097 33800 ft 488 kts 145°
2026-04-20 05:02 28.86049 49.19635 34420 ft 487 kts 144°
2026-04-20 05:02 28.83521 49.22229 34897 ft 489 kts 144°
2026-04-20 05:02 28.80984 49.24853 35217 ft 494 kts 144°
2026-04-20 05:03 28.78427 49.27492 35515 ft 498 kts 144°
2026-04-20 05:03 28.75838 49.30156 35866 ft 501 kts 145°
2026-04-20 05:03 28.73245 49.32817 36275 ft 502 kts 145°
2026-04-20 05:03 28.70663 49.35462 36703 ft 503 kts 146°
2026-04-20 05:04 28.68058 49.38125 37065 ft 505 kts 146°
2026-04-20 05:04 28.65446 49.40856 37331 ft 511 kts 143°
2026-04-20 05:04 28.62930 49.43766 37508 ft 520 kts 140°
2026-04-20 05:04 28.60532 49.46905 37705 ft 529 kts 135°
2026-04-20 05:05 28.58280 49.50269 37947 ft 536 kts 131°
2026-04-20 05:05 28.56205 49.53823 38217 ft 542 kts 127°
2026-04-20 05:05 28.54242 49.57525 38499 ft 546 kts 126°
2026-04-20 05:05 28.52332 49.61212 38731 ft 548 kts 126°
2026-04-20 05:06 28.50375 49.64964 38891 ft 551 kts 126°
2026-04-20 05:06 28.47072 49.71193 38941 ft 554 kts 127°
2026-04-20 05:07 28.42578 49.78292 38942 ft 546 kts 137°
2026-04-20 05:07 28.37275 49.84347 38920 ft 535 kts 147°
2026-04-20 05:08 28.31329 49.89318 38939 ft 528 kts 155°
2026-04-20 05:08 28.25176 49.93900 38943 ft 528 kts 155°
2026-04-20 05:09 28.19082 49.98465 38930 ft 528 kts 154°
2026-04-20 05:09 28.12951 50.03096 38935 ft 530 kts 154°
2026-04-20 05:10 28.06816 50.07744 38931 ft 530 kts 154°
2026-04-20 05:10 28.00680 50.12387 38922 ft 530 kts 154°
2026-04-20 05:11 27.94528 50.17031 38937 ft 533 kts 154°
2026-04-20 05:11 27.88353 50.21686 38937 ft 533 kts 154°
2026-04-20 05:12 27.82212 50.26313 38922 ft 533 kts 154°
2026-04-20 05:12 27.76015 50.30974 38933 ft 535 kts 154°
2026-04-20 05:13 27.69815 50.35633 38940 ft 535 kts 154°
2026-04-20 05:13 27.63618 50.40281 38919 ft 535 kts 154°
2026-04-20 05:14 27.57471 50.44951 38940 ft 536 kts 153°
2026-04-20 05:14 27.51307 50.49698 38940 ft 536 kts 153°
2026-04-20 05:15 27.45114 50.54446 38942 ft 536 kts 153°
2026-04-20 05:15 27.38940 50.59163 38943 ft 536 kts 153°
2026-04-20 05:16 27.32756 50.63883 38941 ft 536 kts 153°
2026-04-20 05:16 27.26570 50.68595 38932 ft 537 kts 153°
2026-04-20 05:17 27.20421 50.73280 38944 ft 537 kts 153°
2026-04-20 05:17 27.14402 50.78307 38930 ft 542 kts 146°
2026-04-20 05:18 27.08869 50.84155 38928 ft 547 kts 139°
2026-04-20 05:18 27.03547 50.90334 38930 ft 550 kts 137°
2026-04-20 05:19 26.98635 50.97002 38929 ft 554 kts 129°
2026-04-20 05:19 26.94415 51.04312 38928 ft 556 kts 123°
2026-04-20 05:20 26.90435 51.11702 38917 ft 558 kts 122°
2026-04-20 05:20 26.86837 51.19454 38921 ft 559 kts 114°
2026-04-20 05:21 26.84101 51.27621 38921 ft 560 kts 108°
2026-04-20 05:21 26.81682 51.35937 38914 ft 559 kts 107°
2026-04-20 05:22 26.79253 51.44164 38906 ft 556 kts 108°
2026-04-20 05:22 26.76769 51.52446 38916 ft 557 kts 108°
2026-04-20 05:23 26.74298 51.60638 38918 ft 555 kts 108°
2026-04-20 05:23 26.71829 51.68841 38914 ft 554 kts 108°
2026-04-20 05:24 26.69382 51.77022 38905 ft 553 kts 108°
2026-04-20 05:24 26.66920 51.85213 38903 ft 555 kts 107°
2026-04-20 05:25 26.64427 51.93390 38902 ft 555 kts 109°
2026-04-20 05:25 26.61773 52.01524 38899 ft 555 kts 109°
2026-04-20 05:26 26.59099 52.09644 38904 ft 553 kts 109°
2026-04-20 05:26 26.56466 52.17672 38883 ft 554 kts 109°
2026-04-20 05:27 26.53801 52.25806 38895 ft 556 kts 109°
2026-04-20 05:27 26.51141 52.33922 38896 ft 554 kts 109°
2026-04-20 05:28 26.48479 52.42016 38892 ft 553 kts 109°
2026-04-20 05:28 26.45831 52.50054 38891 ft 553 kts 109°
2026-04-20 05:29 26.43166 52.58116 38882 ft 553 kts 109°
2026-04-20 05:29 26.40501 52.66171 38890 ft 553 kts 109°
2026-04-20 05:30 26.37823 52.74252 38891 ft 553 kts 109°
2026-04-20 05:30 26.35149 52.82305 38895 ft 551 kts 109°
2026-04-20 05:31 26.32500 52.90256 38892 ft 550 kts 109°
2026-04-20 05:31 26.29816 52.98281 38878 ft 552 kts 109°
2026-04-20 05:32 26.27136 53.06291 38885 ft 551 kts 109°
2026-04-20 05:32 26.24452 53.14293 38885 ft 550 kts 109°
2026-04-20 05:33 26.21794 53.22190 38473 ft 543 kts 109°
2026-04-20 05:33 26.20468 53.26131 37727 ft 543 kts 109°
2026-04-20 05:33 26.19146 53.30058 37112 ft 537 kts 109°
2026-04-20 05:33 26.17787 53.33899 36608 ft 529 kts 112°
2026-04-20 05:34 26.16312 53.37629 35996 ft 524 kts 114°
2026-04-20 05:34 26.14814 53.41316 35353 ft 519 kts 114°
2026-04-20 05:34 26.11843 53.48576 34131 ft 509 kts 115°
2026-04-20 05:35 26.10386 53.52141 33477 ft 504 kts 115°
2026-04-20 05:35 26.08901 53.55780 32676 ft 500 kts 115°
2026-04-20 05:35 26.07481 53.59260 31846 ft 498 kts 115°
2026-04-20 05:35 26.06048 53.62772 31273 ft 496 kts 115°
2026-04-20 05:36 26.04620 53.66270 30924 ft 496 kts 115°
2026-04-20 05:36 26.03189 53.69771 30400 ft 497 kts 115°
2026-04-20 05:36 26.01751 53.73290 29754 ft 497 kts 115°
2026-04-20 05:36 26.00338 53.76760 29029 ft 497 kts 115°
2026-04-20 05:37 25.98953 53.80266 28302 ft 497 kts 115°
2026-04-20 05:37 25.97572 53.83810 27548 ft 497 kts 115°
2026-04-20 05:37 25.96194 53.87346 27002 ft 492 kts 115°
2026-04-20 05:37 25.94836 53.90819 26554 ft 486 kts 115°
2026-04-20 05:38 25.93484 53.94264 25970 ft 483 kts 115°
2026-04-20 05:38 25.92151 53.97639 25294 ft 481 kts 116°
2026-04-20 05:38 25.90723 54.00971 24667 ft 477 kts 117°
2026-04-20 05:38 25.89259 54.04280 24057 ft 474 kts 117°
2026-04-20 05:39 25.87799 54.07570 23456 ft 471 kts 117°
2026-04-20 05:39 25.86351 54.10830 22794 ft 468 kts 117°
2026-04-20 05:39 25.84917 54.14059 22174 ft 464 kts 117°
2026-04-20 05:39 25.83498 54.17256 21567 ft 459 kts 117°
2026-04-20 05:40 25.82163 54.20469 20988 ft 455 kts 114°
2026-04-20 05:40 25.81018 54.23690 20416 ft 451 kts 111°
2026-04-20 05:40 25.79989 54.26955 19926 ft 445 kts 110°
2026-04-20 05:40 25.78975 54.30245 19692 ft 444 kts 110°
2026-04-20 05:41 25.77991 54.33443 19461 ft 443 kts 110°
2026-04-20 05:41 25.76987 54.36694 19214 ft 441 kts 110°
2026-04-20 05:41 25.75990 54.39913 18961 ft 439 kts 110°
2026-04-20 05:41 25.74993 54.43119 18651 ft 437 kts 110°
2026-04-20 05:42 25.74002 54.46302 18265 ft 434 kts 110°
2026-04-20 05:42 25.73018 54.49459 17785 ft 431 kts 110°
2026-04-20 05:42 25.72037 54.52591 17296 ft 427 kts 109°
2026-04-20 05:42 25.71068 54.55687 16839 ft 423 kts 109°
2026-04-20 05:43 25.70107 54.58765 16370 ft 419 kts 109°
2026-04-20 05:43 25.69150 54.61804 15900 ft 416 kts 109°
2026-04-20 05:43 25.68196 54.64781 15455 ft 412 kts 109°
2026-04-20 05:43 25.67231 54.67778 14998 ft 409 kts 109°
2026-04-20 05:44 25.66280 54.70735 14524 ft 405 kts 109°
2026-04-20 05:44 25.65333 54.73678 14081 ft 402 kts 109°
2026-04-20 05:44 25.64398 54.76581 13608 ft 398 kts 109°
2026-04-20 05:44 25.63471 54.79463 13098 ft 395 kts 109°
2026-04-20 05:45 25.62552 54.82319 12615 ft 391 kts 109°
2026-04-20 05:45 25.61642 54.85141 12152 ft 387 kts 109°
2026-04-20 05:45 25.60653 54.87911 11749 ft 387 kts 112°
2026-04-20 05:45 25.59609 54.90615 11683 ft 370 kts 112°
2026-04-20 05:46 25.58625 54.93129 11683 ft 348 kts 112°
2026-04-20 05:46 25.57693 54.95511 11662 ft 326 kts 112°
2026-04-20 05:46 25.56821 54.97741 11618 ft 303 kts 112°
2026-04-20 05:46 25.55998 54.99849 11446 ft 292 kts 112°
2026-04-20 05:47 25.55197 55.01891 11182 ft 289 kts 113°
2026-04-20 05:47 25.54326 55.03900 10864 ft 287 kts 116°
2026-04-20 05:47 25.53365 55.05843 10837 ft 287 kts 118°
2026-04-20 05:47 25.52363 55.07775 10872 ft 288 kts 119°
2026-04-20 05:48 25.51360 55.09701 10906 ft 288 kts 119°
2026-04-20 05:48 25.50370 55.11603 10928 ft 288 kts 119°
2026-04-20 05:48 25.49365 55.13537 10955 ft 288 kts 119°
2026-04-20 05:48 25.48363 55.15467 10974 ft 288 kts 119°
2026-04-20 05:49 25.47358 55.17392 10987 ft 288 kts 120°
2026-04-20 05:49 25.46274 55.19270 10954 ft 289 kts 124°
2026-04-20 05:49 25.45076 55.21059 10780 ft 288 kts 128°
2026-04-20 05:49 25.43774 55.22745 10641 ft 288 kts 131°
2026-04-20 05:50 25.42430 55.24391 10512 ft 288 kts 132°
2026-04-20 05:50 25.41067 55.26052 10394 ft 287 kts 131°
2026-04-20 05:50 25.39742 55.27672 10289 ft 286 kts 131°
2026-04-20 05:50 25.38410 55.29305 10191 ft 285 kts 131°
2026-04-20 05:51 25.34436 55.33434 9746 ft 284 kts 149°
2026-04-20 05:51 25.32711 55.34500 9472 ft 277 kts 153°
2026-04-20 05:52 25.31010 55.35476 9198 ft 271 kts 153°
2026-04-20 05:52 25.29309 55.36444 8958 ft 265 kts 153°
2026-04-20 05:52 25.27682 55.37381 8678 ft 261 kts 153°
2026-04-20 05:52 25.26110 55.38293 8409 ft 257 kts 152°
2026-04-20 05:53 25.24526 55.39216 8095 ft 255 kts 152°
2026-04-20 05:53 25.22965 55.40129 7795 ft 253 kts 152°
2026-04-20 05:53 25.21412 55.41039 7511 ft 251 kts 152°
2026-04-20 05:53 25.19863 55.41945 7257 ft 251 kts 152°
2026-04-20 05:54 25.18326 55.42846 6996 ft 250 kts 152°
2026-04-20 05:54 25.16792 55.43743 6975 ft 249 kts 152°
2026-04-20 05:54 25.15272 55.44631 6988 ft 250 kts 152°
2026-04-20 05:54 25.13714 55.45541 6996 ft 250 kts 152°
2026-04-20 05:55 25.12190 55.46466 6995 ft 250 kts 146°
2026-04-20 05:55 25.10885 55.47686 7001 ft 249 kts 130°
2026-04-20 05:55 25.09864 55.49232 7006 ft 249 kts 121°
2026-04-20 05:55 25.08966 55.50867 7006 ft 249 kts 119°
2026-04-20 05:56 25.08083 55.52512 7008 ft 249 kts 120°
2026-04-20 05:56 25.07194 55.54154 7009 ft 247 kts 120°
2026-04-20 05:56 25.06294 55.55782 7007 ft 247 kts 121°
2026-04-20 05:56 25.05394 55.57394 7009 ft 247 kts 121°
2026-04-20 05:57 25.04475 55.59030 7006 ft 247 kts 121°
2026-04-20 05:57 25.03573 55.60650 6943 ft 247 kts 120°
2026-04-20 05:57 25.02683 55.62261 6826 ft 246 kts 120°
2026-04-20 05:57 25.01793 55.63873 6703 ft 245 kts 120°
2026-04-20 05:58 25.00906 55.65478 6596 ft 245 kts 120°
2026-04-20 05:58 25.00016 55.67079 6476 ft 244 kts 120°
2026-04-20 05:58 24.99133 55.68656 6362 ft 243 kts 121°
2026-04-20 05:58 24.98244 55.70241 6235 ft 243 kts 121°
2026-04-20 05:59 24.97353 55.71830 5967 ft 242 kts 121°
2026-04-20 05:59 24.96465 55.73415 5688 ft 242 kts 121°
2026-04-20 05:59 24.95610 55.75015 5397 ft 241 kts 111°
2026-04-20 05:59 24.95245 55.76794 5128 ft 236 kts 88°
2026-04-20 06:00 24.95531 55.78533 4927 ft 229 kts 65°
2026-04-20 06:00 24.96390 55.79966 4747 ft 221 kts 43°
2026-04-20 06:00 24.97624 55.80893 4528 ft 215 kts 21°
2026-04-20 06:00 24.99059 55.81247 4345 ft 209 kts
2026-04-20 06:01 25.00462 55.81011 4220 ft 201 kts 340°
2026-04-20 06:01 25.01676 55.80252 4135 ft 201 kts 320°
2026-04-20 06:01 25.02567 55.79073 4006 ft 201 kts 300°
2026-04-20 06:01 25.03042 55.77625 3898 ft 201 kts 285°
2026-04-20 06:02 25.03418 55.76141 3776 ft 200 kts 293°
2026-04-20 06:02 25.04039 55.74776 3645 ft 197 kts 300°
2026-04-20 06:02 25.04715 55.73474 3499 ft 198 kts 302°
2026-04-20 06:02 25.05424 55.72173 3393 ft 198 kts 302°
2026-04-20 06:03 25.06144 55.70876 3264 ft 197 kts 303°
2026-04-20 06:03 25.06865 55.69583 3155 ft 197 kts 303°
2026-04-20 06:03 25.07584 55.68295 3035 ft 197 kts 302°
2026-04-20 06:03 25.08314 55.66991 2912 ft 196 kts 302°
2026-04-20 06:04 25.09027 55.65715 2794 ft 195 kts 302°
2026-04-20 06:04 25.09738 55.64437 2675 ft 195 kts 302°
2026-04-20 06:04 25.10449 55.63158 2558 ft 195 kts 301°
2026-04-20 06:04 25.11160 55.61879 2429 ft 195 kts 301°
2026-04-20 06:05 25.11871 55.60601 2314 ft 194 kts 301°
2026-04-20 06:05 25.12578 55.59330 2171 ft 186 kts 301°
2026-04-20 06:05 25.13226 55.58167 2037 ft 175 kts 301°
2026-04-20 06:05 25.13842 55.57059 1986 ft 162 kts 301°
2026-04-20 06:06 25.14418 55.56023 1987 ft 156 kts 301°
2026-04-20 06:06 25.14985 55.55004 1990 ft 155 kts 301°
2026-04-20 06:06 25.15550 55.53986 2001 ft 155 kts 301°
2026-04-20 06:06 25.16115 55.52968 1996 ft 155 kts 301°
2026-04-20 06:07 25.16680 55.51951 2000 ft 155 kts 302°
2026-04-20 06:07 25.17247 55.50932 2014 ft 155 kts 301°
2026-04-20 06:07 25.17812 55.49915 1988 ft 155 kts 301°
2026-04-20 06:07 25.18386 55.48884 1858 ft 155 kts 301°
2026-04-20 06:08 25.18952 55.47867 1687 ft 154 kts 301°
2026-04-20 06:08 25.19513 55.46856 1508 ft 154 kts 301°
2026-04-20 06:08 25.20073 55.45849 1320 ft 153 kts 301°
2026-04-20 06:08 25.20630 55.44845 1123 ft 153 kts 301°
2026-04-20 06:09 25.21178 55.43857 959 ft 152 kts 301°
2026-04-20 06:09 25.21733 55.42858 772 ft 152 kts 301°
2026-04-20 06:09 25.22285 55.41863 579 ft 151 kts 301°
2026-04-20 06:09 25.22834 55.40871 390 ft 151 kts 301°
2026-04-20 06:10 25.23384 55.39886 196 ft 150 kts 301°
2026-04-20 06:10 25.23912 55.38898 39 ft 147 kts 301°
2026-04-20 06:10 25.24354 55.38110 35 ft 92 kts 301°
2026-04-20 06:10 25.24562 55.37729 30 ft 26 kts 294°
2026-04-20 06:11 25.24610 55.37533 31 ft 27 kts 275°
2026-04-20 06:11 25.24615 55.37387 30 ft 0 kts 271°